Location: Auckland
(36.8670°S, 174.7670°E)
Time: 05:31:41
(UTC+12:00)

Courier 1B Rocket - Pass Details

Date: 25 July 2019
Orbit: 920 x 1202 km, 28.3° (Epoch: 24 August)

Event Time Altitude Azimuth Distance (km) Brightness Sun altitude
Rises 07:35:53 0° 274° (W) 4,047 7.7 1.0°
Reaches altitude 10° 07:39:11 10° 285° (WNW) 3,047 7.2 1.6°
Maximum altitude 07:45:24 29° 340° (NNW) 1,913 6.7 2.7°
Drops below altitude 10° 07:51:17 10° 37° (NE) 2,867 8.9 3.8°
Sets 07:54:18 0° 48° (NE) 3,770 10.1 4.3°
